Retour au catalogue

FENGYUN 1C DEB

ActifPO
NORAD 35199·DEBRIS·🇨🇳 China

Lancé May 10, 1999 depuis Taiyuan Satellite Launch Center

Loading…

Prochains Passages (prochaines 24 heures)

TLE

PériméSource: Space-Track

Époque: Sep 2, 2026, 14:32 UTC

1 35199U 99025DPF 26245.60586769  .00001380  00000-0  92867-3 0  9995
2 35199  98.4541  18.8838 0116002 190.5784 169.2939 13.98908271958739

Suivez FENGYUN 1C DEB en temps réel avec AllMySat

Download on the App Store